Home   Weather   Yazd   Past weeks

Flag for Iran Past Weather in Yazd, Iran — Yesterday and Last 2 Weeks

Now
54 °F

Sunny.


Feels Like: 52 °F
Forecast: 36 / 60 °F
Wind: 7 mph from North

Location: Yazd Airport

Current Time: Jan 18, 2017 at 5:51:41 pm

Latest Report: Jan 18, 2017 at 5:30 pm


Visibility: 10 mi

Pressure: 30.15 "Hg (26.06 "Hg at 1218m altitude)

Humidity: 38%

Dew Point: 28 °F

Location of YazdLocation

Past Weather in Yazd — Graph

°F

Yazd Temperature Yesterday

Maximum temperature yesterday: 55 °F (at 2:30 pm)
Minimum temperature yesterday: 34 °F (at 5:30 am)
Average temperature yesterday: 44 °F

High & Low Weather Summary for the Past Weeks

 TemperatureHumidityPressure
High66 °F (Jan 9, 2:30 pm)100% (Jan 16, 1:30 am)30.30 "Hg (Jan 16, 1:30 am)
Low28 °F (Jan 8, 5:00 am)5% (Jan 7, 2:30 pm)29.77 "Hg (Jan 13, 5:00 pm)
Average45 °F36%30.12 "Hg
* Reported Jan 3 4:30 pm — Jan 18 4:30 pm, Yazd, Weather by CustomWeather, © 2017

Note: Actual official high and low records may vary slightly from our data, if they occured in-between our weather recording intervals... More about our weather records

Advertising

Yazd Weather History for the Previous 24 Hours

Scroll right to see more
 ConditionsComfort  
Time TempWeatherWind HumidityBarometerVisibility
4:30 pm
Wed, Jan 18
59 °FSunny.5 mph25%30.12 "Hg10 mi
4:00 pm59 °FSunny.5 mph27%30.12 "Hg10 mi
3:30 pm59 °FSunny.5 mph27%30.15 "Hg10 mi
3:00 pm59 °FSunny.5 mph27%30.12 "Hg10 mi
2:30 pm59 °FSunny.5 mph27%30.12 "Hg10 mi
1:30 pm57 °FSunny.5 mph31%30.15 "Hg10 mi
12:30 pm55 °FSunny.7 mph33%30.18 "Hg10 mi
12:00 pm54 °FSunny.7 mph35%30.18 "Hg10 mi
11:30 am52 °FSunny.7 mph41%30.21 "Hg10 mi
11:00 am52 °FSunny.12 mph41%30.21 "Hg10 mi
10:30 am48 °FSunny.7 mph46%30.24 "Hg10 mi
10:00 am46 °FSunny.7 mph50%30.24 "Hg10 mi
9:30 am41 °FSunny.7 mph61%30.24 "Hg10 mi
9:00 am39 °FSunny.5 mph61%30.24 "Hg10 mi
8:30 am37 °FSunny.5 mph65%30.24 "Hg10 mi
8:00 am36 °FSunny.5 mph70%30.24 "Hg10 mi
7:30 am34 °FSunny.5 mph75%30.24 "Hg10 mi
7:00 am34 °FClear.5 mph75%30.21 "Hg10 mi
6:30 am36 °FClear.2 mph75%30.21 "Hg10 mi
6:00 am36 °FClear.2 mph75%30.21 "Hg10 mi
5:30 am36 °FClear.2 mph75%30.21 "Hg10 mi
5:00 am34 °FClear.2 mph81%30.21 "Hg10 mi
4:30 am36 °FClear.2 mph81%30.21 "Hg10 mi
3:30 am36 °FClear.5 mph81%30.21 "Hg10 mi
2:30 am37 °FClear.2 mph75%30.21 "Hg10 mi
1:30 am36 °FClear.2 mph81%30.21 "Hg10 mi
12:30 am37 °FClear.2 mph75%30.21 "Hg10 mi
12:00 am37 °FClear.2 mph75%30.21 "Hg10 mi
11:30 pm
Tue, Jan 17
37 °FClear.2 mph75%30.21 "Hg10 mi
11:00 pm39 °FClear.No wind70%30.21 "Hg10 mi
10:30 pm41 °FClear.2 mph66%30.21 "Hg10 mi
10:00 pm43 °FClear.No wind61%30.21 "Hg10 mi
9:30 pm45 °FClear.5 mph57%30.21 "Hg10 mi
9:00 pm45 °FClear.5 mph57%30.21 "Hg10 mi
8:30 pm43 °FClear.5 mph61%30.21 "Hg10 mi
8:00 pm46 °FClear.5 mph53%30.21 "Hg10 mi
7:30 pm48 °FClear.2 mph50%30.21 "Hg10 mi
7:00 pm48 °FClear.2 mph50%30.21 "Hg10 mi
6:30 pm50 °FClear.2 mph47%30.21 "Hg5 mi
6:00 pm50 °FClear.2 mph47%30.21 "Hg5 mi
5:30 pm52 °FClear.2 mph41%30.18 "Hg4 mi
5:00 pm54 °FHaze.5 mph38%30.18 "Hg3 mi
Weather by CustomWeather, © 2017

See weather overviewHow to use our weather pages